User: anonymous   Login
Location: Stara Lesna
(49.1528°N, 20.2911°E)
Time: 11:52:03
(UTC+01:00)
Language:

STARLINK-56 - Orbit

View from above orbital plane
View from above orbital plane
View from above satellite
View from above satellite

Ground track
Ground track

The orbit data is extracted from the following two-line orbital elements,

1 44283U 19029BA  19316.86723311 +.00000323 +00000-0 +41470-4 0  9991
2 44283 053.0025 116.4697 0002312 093.7778 266.3474 15.05494572025383
Epoch (UTC): 12 November 2019 20:48:48
Eccentricity: 0.0002312
inclination: 53.0025°
perigee height: 548 km
apogee height: 551 km
right ascension of ascending node: 116.4697°
argument of perigee: 93.7778°
revolutions per day: 15.05494572
mean anomaly at epoch: 266.3474°
orbit number at epoch: 2538

The dashed part of the orbit path shows where the satellite is in the earth's shadow,  

DLR